This demonstration page uses our WeatherBlox Daily Observations layout. Learn more.

Left ArrowRight Arrow

Hourly Observations for August 10, 2021

Temp ( °F °C ) Dew Point ( °F °C ) Humidity (%) Winds ( mph kmh ) Pressure ( in mb ) Visibility ( mi km ) Precip ( " mm )
12:15 am 00:15 Partly Cloudy 74 23.2 71 21.5 90 90 S 8 13 29.95 1014 10 16 0.00 0.00
12:35 am 00:35 Partly Cloudy 74 23.3 71 21.6 90 90 SSW 7 11 29.96 1014 10 16 0.00 0.00
12:55 am 00:55 Mostly Cloudy 75 23.7 71 21.7 89 89 SSW 13 20 29.95 1014 10 16 0.00 0.00
1:15 am 01:15 Mostly Cloudy 75 24 71 21.7 87 87 SSW 9 15 29.95 1014 10 16 0.00 0.00
1:35 am 01:35 Partly Cloudy 75 23.7 71 21.8 89 89 SSW 8 13 29.95 1014 10 16 0.00 0.00
1:55 am 01:55 Clear 75 23.7 71 21.9 90 90 SSW 9 15 29.95 1014 10 16 0.00 0.00
2:15 am 02:15 Clear 75 23.8 72 22 90 90 SSW 10 17 29.95 1014 10 16 0.00 0.00
2:35 am 02:35 Clear 75 23.7 72 22.1 91 91 SSW 8 13 29.95 1014 10 16 0.00 0.00
2:55 am 02:55 Clear 75 23.7 72 22.2 91 91 SSW 8 13 29.95 1014 10 16 0.00 0.00
3:15 am 03:15 Mostly Cloudy 75 23.7 72 22.2 91 91 SSW 9 15 29.94 1014 10 16 0.00 0.00
3:35 am 03:35 Mostly Cloudy 75 23.7 72 22.3 92 92 SSW 8 13 29.94 1014 10 16 0.00 0.00
3:55 am 03:55 Partly Cloudy 75 23.7 72 22.3 92 92 SSW 9 15 29.94 1014 10 16 0.00 0.00
4:15 am 04:15 Clear 74 23.6 73 22.5 94 94 SSW 8 13 29.95 1014 10 16 0.00 0.00
4:35 am 04:35 Mostly Cloudy 75 23.8 73 22.5 92 92 SSW 6 9 29.95 1014 10 16 0.00 0.00
4:55 am 04:55 Mostly Cloudy 75 23.8 73 22.5 92 92 SSW 8 13 29.94 1014 10 16 0.00 0.00
5:15 am 05:15 Partly Cloudy 74 23.5 72 22.3 93 93 SSW 8 13 29.94 1014 10 16 0.00 0.00
5:35 am 05:35 Clear 74 23.6 73 22.5 94 94 SSW 8 13 29.95 1014 10 16 0.00 0.00
5:55 am 05:55 Partly Cloudy with Nearby Thunderstorms 74 23.6 73 22.5 94 94 S 6 9 29.95 1014 10 16 0.00 0.00
6:15 am 06:15 Partly Cloudy 74 23.1 72 22.3 95 95 S 3 6 29.96 1014 10 16 0.00 0.00
6:35 am 06:35 Partly Cloudy with Thunderstorms 74 23.4 73 22.5 95 95 SSW 5 7 29.97 1015 10 16 0.00 0.00
6:55 am 06:55 Mostly Cloudy 75 23.7 73 22.5 93 93 SSW 6 9 29.97 1015 10 16 0.00 0.00
7:15 am 07:15 Mostly Cloudy with Nearby Thunderstorms 75 23.8 73 22.5 92 92 S 5 7 29.97 1015 10 16 0.00 0.00
7:35 am 07:35 Sunny 74 23.6 73 22.5 94 94 SSW 6 9 29.98 1015 10 16 0.00 0.00
7:55 am 07:55 Sunny 75 24 73 22.6 92 92 SSW 6 9 29.98 1015 10 16 0.00 0.00
8:15 am 08:15 Sunny 75 24.1 73 22.7 92 92 SSW 7 11 29.98 1015 10 16 0.00 0.00
8:35 am 08:35 Sunny 76 24.3 73 22.8 91 91 SSW 9 15 29.98 1015 10 16 0.00 0.00
8:55 am 08:55 Sunny 77 24.8 73 23 90 90 SW 8 13 29.98 1015 10 16 0.00 0.00
9:15 am 09:15 Partly Cloudy 78 25.5 73 23 86 86 SW 10 17 29.98 1015 10 16 0.00 0.00
9:35 am 09:35 Mostly Cloudy 79 26 74 23.2 85 85 SW 13 20 29.98 1015 10 16 0.00 0.00
9:55 am 09:55 Mostly Cloudy 80 26.6 74 23.5 83 83 SW 8 13 29.98 1015 10 16 0.00 0.00
10:15 am 10:15 Mostly Cloudy 80 26.7 74 23.5 83 83 SW 13 20 29.98 1015 10 16 0.00 0.00
10:35 am 10:35 Mostly Cloudy 81 27.3 75 23.8 81 81 WSW 12 19 29.98 1015 10 16 0.00 0.00
10:55 am 10:55 Mostly Cloudy 82 27.7 75 23.9 80 80 SW 13 20 29.98 1015 10 16 0.00 0.00
11:15 am 11:15 Mostly Cloudy 83 28.2 76 24.2 79 79 WSW 9 15 29.98 1015 10 16 0.00 0.00
11:35 am 11:35 Cloudy 83 28.6 76 24.6 79 79 SW 9 15 29.98 1015 10 16 0.00 0.00
11:55 am 11:55 Mostly Cloudy 84 29.1 77 24.8 78 78 SW 10 17 29.98 1015 10 16 0.00 0.00
12:15 pm 12:15 Cloudy 83 28.4 76 24.5 79 79 SW 10 17 29.99 1016 10 16 0.00 0.00
12:35 pm 12:35 Cloudy 85 29.3 77 25.2 79 79 SW 7 11 29.98 1015 10 16 0.00 0.00
12:55 pm 12:55 Cloudy 86 29.9 78 25.4 77 77 WSW 9 15 29.96 1015 10 16 0.00 0.00
1:15 pm 13:15 Mostly Cloudy 87 30.5 78 25.3 74 74 SSW 9 15 29.95 1014 10 16 0.00 0.00
1:35 pm 13:35 Mostly Cloudy 87 30.6 78 25.4 74 74 SW 10 17 29.95 1014 10 16 0.00 0.00
1:55 pm 13:55 Partly Cloudy 87 30.6 76 24.6 70 70 WSW 9 15 29.94 1014 10 16 0.00 0.00
2:15 pm 14:15 Sunny 87 30.7 75 23.9 67 67 SSW 9 15 29.94 1014 10 16 0.00 0.00
2:35 pm 14:35 Sunny 88 31 75 24 66 66 SSW 12 19 29.94 1014 10 16 0.00 0.00
2:55 pm 14:55 Sunny 88 31.1 74 23.5 64 64 SW 14 22 29.94 1014 10 16 0.00 0.00
3:15 pm 15:15 Sunny 89 31.4 75 23.8 64 64 SW 13 20 29.94 1014 10 16 0.00 0.00
3:35 pm 15:35 Sunny 88 31.3 75 23.7 64 64 SW 16 26 29.93 1014 10 16 0.00 0.00
3:55 pm 15:55 Partly Cloudy 89 31.5 77 24.9 68 68 SW 10 17 29.93 1014 10 16 0.00 0.00
4:15 pm 16:15 Mostly Cloudy 88 31.3 77 25 69 69 SW 9 15 29.92 1013 10 16 0.00 0.00
4:35 pm 16:35 Mostly Cloudy 89 31.5 77 24.8 68 68 SW 13 20 29.93 1014 10 16 0.00 0.00
4:55 pm 16:55 Cloudy 87 30.7 77 24.9 71 71 SW 8 13 29.92 1013 10 16 0.00 0.00
5:15 pm 17:15 Mostly Cloudy 89 31.7 78 25.6 70 70 SW 10 17 29.92 1013 10 16 0.00 0.00
5:35 pm 17:35 Mostly Cloudy 87 30.6 77 25 72 72 SW 14 22 29.92 1013 10 16 0.00 0.00
5:55 pm 17:55 Mostly Cloudy 88 31.2 77 24.9 69 69 SSW 14 22 29.91 1013 10 16 0.00 0.00
6:15 pm 18:15 Mostly Cloudy 87 30.7 77 25.1 72 72 SSW 13 20 29.91 1013 10 16 0.00 0.00
6:35 pm 18:35 Mostly Cloudy 88 31.1 77 25 70 70 SSW 12 19 29.90 1013 10 16 0.00 0.00
6:55 pm 18:55 Mostly Cloudy 86 30.1 76 24.6 72 72 SSW 9 15 29.90 1013 10 16 0.00 0.00
7:15 pm 19:15 Mostly Cloudy 87 30.3 77 24.9 73 73 SSW 13 20 29.90 1013 10 16 0.00 0.00
7:35 pm 19:35 Partly Cloudy 86 29.9 76 24.4 72 72 SSW 14 22 29.90 1013 10 16 0.00 0.00
7:55 pm 19:55 Sunny 85 29.5 76 24.5 75 75 SSW 10 17 29.91 1013 10 16 0.00 0.00
8:15 pm 20:15 Mostly Cloudy 84 29.1 76 24.4 76 76 SSW 9 15 29.92 1013 10 16 0.00 0.00
8:35 pm 20:35 Partly Cloudy 83 28.6 75 24.1 77 77 SSW 8 13 29.92 1013 10 16 0.00 0.00
8:55 pm 20:55 Clear 83 28.2 76 24.2 79 79 SSW 8 13 29.91 1013 10 16 0.00 0.00
9:15 pm 21:15 Clear 82 27.7 76 24.2 81 81 SSW 6 9 29.91 1013 10 16 0.00 0.00
9:35 pm 21:35 Clear 81 27.1 76 24.2 84 84 SW 6 9 29.92 1013 10 16 0.00 0.00
9:55 pm 21:55 Partly Cloudy 80 26.8 76 24.2 86 86 SSW 5 7 29.93 1014 10 16 0.00 0.00
10:15 pm 22:15 Clear 79 26.3 76 24.2 88 88 SSW 5 7 29.94 1014 10 16 0.00 0.00
10:35 pm 22:35 Clear 79 25.9 75 24.1 90 90 S 6 9 29.94 1014 10 16 0.00 0.00
10:55 pm 22:55 Clear 80 26.5 75 24.1 87 87 SSW 5 7 29.95 1014 10 16 0.00 0.00
11:15 pm 23:15 Clear 79 26.3 75 24 87 87 SSW 8 13 29.95 1014 10 16 0.00 0.00
11:35 pm 23:35 Mostly Cloudy 81 27 75 24 84 84 SW 13 20 29.96 1015 10 16 0.00 0.00
11:55 pm 23:55 Mostly Cloudy 80 26.6 74 23.1 81 81 WSW 9 15 29.97 1015 10 16 0.00 0.00

Powered by AerisWeather